{"data":{"norad_id":63150,"intl_designator":"2025-043U","name":"STARLINK-32919","alt_names":[],"object_type":"PAYLOAD","status":"ACTIVE","operator":null,"country":"US","launch_date":"2025-03-03","launch_site_code":"AFETR","launch_vehicle":null,"mission":null,"orbit_class":"UNKNOWN","rcs_meters":null,"size_class":null,"mass_kg":null,"dimensions":null,"purposes":["comms"],"wikipedia_slug":null,"has_3d_model":false,"image_url":null,"decayed_at":null,"tle_current":{"epoch":"2026-09-21T06:26:11.177952Z","epoch_age_seconds":95963,"freshness":"FRESH","line1":"1 63150U 25043U   26264.26818493  .00014531  00000+0  53611-3 0  9992","line2":"2 63150  43.0009 351.6965 0001454 263.6745  96.3941 15.27605411 87273","mean_motion":15.27605411,"eccentricity":0.0001454,"inclination_deg":43.0009,"raan_deg":351.6965,"arg_perigee_deg":263.6745,"mean_anomaly_deg":96.3941,"bstar":0.00053611,"rev_number":8727,"period_min":94.265180630471,"perigee_km":481.97540202378,"apogee_km":483.97061281394,"semimajor_km":6861.1100074189,"source":"CELESTRAK","updated_at":"2026-09-22T09:00:49.793600Z"}}}